Time,TemperatureF,DewpointF,PressureIn,WindDirection,WindDirectionDegrees,WindSpeedMPH,WindSpeedGustMPH,Humidity,HourlyPrecipIn,Conditions,Clouds,dailyrainin,SoftwareType,DateUTC
2013-02-25 00:01:00,15.0,6.0,-100.00,SSW,205,0.0,0.0,67,0.00,,,-99.99,,2013-02-25 07:01:00,
2013-02-25 00:11:00,13.0,5.0,-100.00,South,180,0.0,0.0,68,0.00,,,-99.99,,2013-02-25 07:11:00,
2013-02-25 00:21:00,13.0,5.0,-100.00,South,180,0.0,0.0,68,0.00,,,-99.99,,2013-02-25 07:21:00,
2013-02-25 00:31:00,15.0,7.0,-100.00,ESE,115,7.0,12.0,70,0.00,,,-99.99,,2013-02-25 07:31:00,
2013-02-25 00:41:00,14.0,6.0,-100.00,East,100,4.0,12.0,70,0.00,,,-99.99,,2013-02-25 07:41:00,
2013-02-25 00:51:00,15.0,7.0,-100.00,ESE,120,7.0,12.0,71,0.00,,,-99.99,,2013-02-25 07:51:00,
2013-02-25 01:01:00,14.0,7.0,-100.00,SE,130,9.0,15.0,70,0.00,,,-99.99,,2013-02-25 08:01:00,
2013-02-25 01:11:00,14.0,6.0,-100.00,ESE,120,3.0,12.0,70,0.00,,,-99.99,,2013-02-25 08:11:00,
2013-02-25 01:21:00,13.0,5.0,-100.00,West,280,2.0,9.0,70,0.00,,,-99.99,,2013-02-25 08:21:00,
2013-02-25 01:31:00,13.0,5.0,-100.00,SE,130,11.0,13.0,70,0.00,,,-99.99,,2013-02-25 08:31:00,
2013-02-25 01:41:00,12.0,4.0,-100.00,SE,130,7.0,12.0,70,0.00,,,-99.99,,2013-02-25 08:41:00,
2013-02-25 01:51:00,11.0,4.0,-100.00,WSW,240,0.0,7.0,70,0.00,,,-99.99,,2013-02-25 08:51:00,
2013-02-25 02:01:00,11.0,3.0,-100.00,SSW,195,1.0,4.0,70,0.00,,,-99.99,,2013-02-25 09:01:00,
2013-02-25 02:12:00,11.0,4.0,-100.00,ESE,120,9.0,13.0,71,0.00,,,-99.99,,2013-02-25 09:12:00,
2013-02-25 02:21:00,11.0,3.0,-100.00,ESE,120,7.0,11.0,71,0.00,,,-99.99,,2013-02-25 09:21:00,
2013-02-25 02:31:00,11.0,3.0,-100.00,ESE,110,6.0,14.0,71,0.00,,,-99.99,,2013-02-25 09:31:00,
2013-02-25 02:41:00,10.0,3.0,-100.00,SE,130,5.0,7.0,71,0.00,,,-99.99,,2013-02-25 09:41:00,
2013-02-25 02:51:00,10.0,3.0,-100.00,ESE,120,7.0,12.0,71,0.00,,,-99.99,,2013-02-25 09:51:00,
2013-02-25 03:01:00,10.0,2.0,-100.00,South,185,1.0,9.0,71,0.00,,,-99.99,,2013-02-25 10:01:00,
2013-02-25 03:11:00,9.0,2.0,-100.00,ESE,115,4.0,8.0,71,0.00,,,-99.99,,2013-02-25 10:11:00,
2013-02-25 03:21:00,9.0,2.0,-100.00,SE,135,2.0,9.0,71,0.00,,,-99.99,,2013-02-25 10:21:00,
2013-02-25 03:31:00,9.0,2.0,-100.00,ESE,110,6.0,9.0,72,0.00,,,-99.99,,2013-02-25 10:31:00,
2013-02-25 03:41:00,9.0,2.0,-100.00,ESE,110,6.0,9.0,72,0.00,,,-99.99,,2013-02-25 10:41:00,
2013-02-25 03:52:00,9.0,2.0,-100.00,East,90,0.0,7.0,72,0.00,,,-99.99,,2013-02-25 10:52:00,
2013-02-25 04:01:00,8.0,1.0,-100.00,SE,130,4.0,7.0,72,0.00,,,-99.99,,2013-02-25 11:01:00,
2013-02-25 04:11:00,8.0,1.0,-100.00,ESE,115,2.0,5.0,72,0.00,,,-99.99,,2013-02-25 11:11:00,
2013-02-25 04:21:00,7.0,0.0,-100.00,ESE,120,4.0,6.0,72,0.00,,,-99.99,,2013-02-25 11:21:00,
2013-02-25 04:31:00,7.0,0.0,-100.00,ENE,65,2.0,7.0,73,0.00,,,-99.99,,2013-02-25 11:31:00,
2013-02-25 04:42:00,7.0,0.0,-100.00,ENE,65,2.0,7.0,73,0.00,,,-99.99,,2013-02-25 11:42:00,
2013-02-25 04:52:00,7.0,0.0,-100.00,ESE,105,2.0,12.0,73,0.00,,,-99.99,,2013-02-25 11:52:00,
2013-02-25 05:01:00,7.0,0.0,-100.00,ESE,120,6.0,10.0,74,0.00,,,-99.99,,2013-02-25 12:01:00,
2013-02-25 05:11:00,7.0,1.0,-100.00,East,100,5.0,9.0,74,0.00,,,-99.99,,2013-02-25 12:11:00,
2013-02-25 05:21:00,7.0,1.0,-100.00,SE,135,2.0,9.0,74,0.00,,,-99.99,,2013-02-25 12:21:00,
2013-02-25 05:32:00,6.0,0.0,-100.00,SE,135,4.0,10.0,74,0.00,,,-99.99,,2013-02-25 12:32:00,
2013-02-25 05:41:00,5.0,-1.0,-100.00,SE,135,6.0,9.0,74,0.00,,,-99.99,,2013-02-25 12:41:00,
2013-02-25 05:53:00,5.0,-1.0,-100.00,East,95,3.0,7.0,74,0.00,,,-99.99,,2013-02-25 12:53:00,
2013-02-25 06:01:00,5.0,-1.0,-100.00,SSE,165,1.0,6.0,74,0.00,,,-99.99,,2013-02-25 13:01:00,
2013-02-25 06:12:00,5.0,-2.0,-100.00,South,180,0.0,1.0,74,0.00,,,-99.99,,2013-02-25 13:12:00,
2013-02-25 06:21:00,4.0,-2.0,-100.00,ESE,115,2.0,4.0,74,0.00,,,-99.99,,2013-02-25 13:21:00,
2013-02-25 06:31:00,5.0,-1.0,-100.00,East,90,3.0,5.0,74,0.00,,,-99.99,,2013-02-25 13:31:00,
2013-02-25 06:41:00,5.0,-1.0,-100.00,WNW,300,0.0,3.0,74,0.00,,,-99.99,,2013-02-25 13:41:00,
2013-02-25 06:51:00,4.0,-2.0,-100.00,SSE,160,2.0,4.0,74,0.00,,,-99.99,,2013-02-25 13:51:00,
2013-02-25 07:02:00,4.0,-2.0,-100.00,SE,145,2.0,5.0,75,0.00,,,-99.99,,2013-02-25 14:02:00,
2013-02-25 07:13:00,5.0,-1.0,-100.00,SE,140,6.0,9.0,75,0.00,,,-99.99,,2013-02-25 14:13:00,
2013-02-25 07:21:00,4.0,-2.0,-100.00,East,80,2.0,7.0,75,0.00,,,-99.99,,2013-02-25 14:21:00,
2013-02-25 07:31:00,5.0,-1.0,-100.00,ENE,75,0.0,2.0,75,0.00,,,-99.99,,2013-02-25 14:31:00,
2013-02-25 07:41:00,5.0,-1.0,-100.00,SE,130,6.0,8.0,76,0.00,,,-99.99,,2013-02-25 14:41:00,
2013-02-25 07:52:00,6.0,0.0,-100.00,ESE,115,2.0,9.0,76,0.00,,,-99.99,,2013-02-25 14:52:00,
2013-02-25 08:02:00,7.0,1.0,-100.00,ENE,70,1.0,6.0,76,0.00,,,-99.99,,2013-02-25 15:02:00,
2013-02-25 08:11:00,7.0,1.0,-100.00,ENE,75,2.0,11.0,76,0.00,,,-99.99,,2013-02-25 15:11:00,
2013-02-25 08:21:00,9.0,3.0,-100.00,SE,125,6.0,9.0,75,0.00,,,-99.99,,2013-02-25 15:21:00,
2013-02-25 08:32:00,9.0,2.0,-100.00,SE,135,9.0,14.0,73,0.00,,,-99.99,,2013-02-25 15:32:00,
2013-02-25 08:41:00,10.0,3.0,-100.00,SE,125,6.0,13.0,71,0.00,,,-99.99,,2013-02-25 15:41:00,
2013-02-25 08:51:00,12.0,4.0,-100.00,SE,125,7.0,9.0,70,0.00,,,-99.99,,2013-02-25 15:51:00,
2013-02-25 09:01:00,13.0,5.0,-100.00,East,80,2.0,7.0,69,0.00,,,-99.99,,2013-02-25 16:01:00,
2013-02-25 09:11:00,14.0,6.0,-100.00,ENE,75,0.0,0.0,68,0.00,,,-99.99,,2013-02-25 16:11:00,
2013-02-25 09:21:00,16.0,7.0,-100.00,SE,130,3.0,9.0,66,0.00,,,-99.99,,2013-02-25 16:21:00,
2013-02-25 09:31:00,18.0,8.0,-100.00,ESE,110,1.0,8.0,64,0.00,,,-99.99,,2013-02-25 16:31:00,
2013-02-25 09:41:00,18.0,7.0,-100.00,ESE,120,6.0,8.0,61,0.00,,,-99.99,,2013-02-25 16:41:00,
2013-02-25 09:51:00,21.0,9.0,-100.00,WSW,255,0.0,7.0,59,0.00,,,-99.99,,2013-02-25 16:51:00,
2013-02-25 10:01:00,23.0,10.0,-100.00,WSW,250,0.0,2.0,56,0.00,,,-99.99,,2013-02-25 17:01:00,
2013-02-25 10:11:00,25.0,10.0,-100.00,WSW,250,0.0,0.0,53,0.00,,,-99.99,,2013-02-25 17:11:00,
2013-02-25 10:21:00,26.0,11.0,-100.00,West,265,0.0,0.0,50,0.00,,,-99.99,,2013-02-25 17:21:00,
2013-02-25 10:31:00,26.0,11.0,-100.00,West,265,0.0,0.0,50,0.00,,,-99.99,,2013-02-25 17:31:00,
2013-02-25 10:41:00,28.0,10.0,-100.00,WNW,290,1.0,6.0,46,0.00,,,-99.99,,2013-02-25 17:41:00,
2013-02-25 10:51:00,28.0,9.0,-100.00,WSW,245,2.0,5.0,45,0.00,,,-99.99,,2013-02-25 17:51:00,
2013-02-25 11:01:00,28.0,9.0,-100.00,West,280,4.0,6.0,44,0.00,,,-99.99,,2013-02-25 18:01:00,
2013-02-25 11:12:00,27.0,8.0,-100.00,WSW,240,1.0,6.0,43,0.00,,,-99.99,,2013-02-25 18:12:00,
2013-02-25 11:21:00,29.0,9.0,-100.00,SSW,200,0.0,2.0,42,0.00,,,-99.99,,2013-02-25 18:21:00,
2013-02-25 11:32:00,29.0,8.0,-100.00,WSW,250,1.0,3.0,41,0.00,,,-99.99,,2013-02-25 18:32:00,
2013-02-25 11:41:00,30.0,9.0,-100.00,WNW,285,4.0,9.0,40,0.00,,,-99.99,,2013-02-25 18:41:00,
2013-02-25 11:51:00,32.0,11.0,-100.00,SW,235,1.0,6.0,40,0.00,,,-99.99,,2013-02-25 18:51:00,
2013-02-25 12:01:00,33.0,11.0,-100.00,West,260,0.0,3.0,39,0.00,,,-99.99,,2013-02-25 19:01:00,
2013-02-25 12:11:00,34.0,11.0,-100.00,WSW,245,0.0,4.0,38,0.00,,,-99.99,,2013-02-25 19:11:00,
2013-02-25 12:21:00,34.0,11.0,-100.00,WSW,245,0.0,4.0,38,0.00,,,-99.99,,2013-02-25 19:21:00,
2013-02-25 12:31:00,34.0,11.0,-100.00,West,265,1.0,4.0,37,0.00,,,-99.99,,2013-02-25 19:31:00,
2013-02-25 12:41:00,33.0,9.0,-100.00,SSW,210,3.0,4.0,35,0.00,,,-99.99,,2013-02-25 19:41:00,
2013-02-25 12:52:00,33.0,9.0,-100.00,WSW,240,0.0,4.0,35,0.00,,,-99.99,,2013-02-25 19:52:00,
2013-02-25 13:01:00,36.0,11.0,-100.00,WSW,255,2.0,3.0,35,0.00,,,-99.99,,2013-02-25 20:01:00,
2013-02-25 13:11:00,37.0,11.0,-100.00,West,270,2.0,4.0,34,0.00,,,-99.99,,2013-02-25 20:11:00,
2013-02-25 13:21:00,37.0,11.0,-100.00,WSW,245,1.0,4.0,32,0.00,,,-99.99,,2013-02-25 20:21:00,
2013-02-25 13:31:00,38.0,10.0,-100.00,SSW,210,0.0,2.0,31,0.00,,,-99.99,,2013-02-25 20:31:00,
2013-02-25 13:41:00,36.0,8.0,-100.00,SW,230,2.0,4.0,29,0.00,,,-99.99,,2013-02-25 20:41:00,
2013-02-25 13:52:00,37.0,9.0,-100.00,West,270,3.0,6.0,29,0.00,,,-99.99,,2013-02-25 20:52:00,
2013-02-25 14:01:00,37.0,9.0,-100.00,WNW,285,2.0,5.0,29,0.00,,,-99.99,,2013-02-25 21:01:00,
2013-02-25 14:11:00,37.0,8.0,-100.00,West,265,2.0,6.0,29,0.00,,,-99.99,,2013-02-25 21:11:00,
2013-02-25 14:21:00,37.0,8.0,-100.00,WSW,250,3.0,5.0,29,0.00,,,-99.99,,2013-02-25 21:21:00,
2013-02-25 14:31:00,38.0,9.0,-100.00,West,270,2.0,6.0,29,0.00,,,-99.99,,2013-02-25 21:31:00,
2013-02-25 14:41:00,36.0,7.0,-100.00,West,260,3.0,7.0,29,0.00,,,-99.99,,2013-02-25 21:41:00,
2013-02-25 14:51:00,36.0,7.0,-100.00,West,260,3.0,6.0,29,0.00,,,-99.99,,2013-02-25 21:51:00,
2013-02-25 15:01:00,35.0,7.0,-100.00,West,260,3.0,5.0,30,0.00,,,-99.99,,2013-02-25 22:01:00,
2013-02-25 15:11:00,35.0,7.0,-100.00,WSW,250,2.0,4.0,30,0.00,,,-99.99,,2013-02-25 22:11:00,
2013-02-25 15:21:00,35.0,8.0,-100.00,WSW,255,4.0,5.0,31,0.00,,,-99.99,,2013-02-25 22:21:00,
2013-02-25 15:31:00,35.0,8.0,-100.00,WSW,245,2.0,6.0,32,0.00,,,-99.99,,2013-02-25 22:31:00,
2013-02-25 15:41:00,35.0,9.0,-100.00,WSW,250,2.0,6.0,33,0.00,,,-99.99,,2013-02-25 22:41:00,
2013-02-25 15:51:00,35.0,10.0,-100.00,WSW,240,3.0,7.0,34,0.00,,,-99.99,,2013-02-25 22:51:00,
2013-02-25 16:01:00,35.0,10.0,-100.00,West,260,2.0,4.0,35,0.00,,,-99.99,,2013-02-25 23:01:00,
2013-02-25 16:11:00,35.0,10.0,-100.00,WSW,245,3.0,6.0,35,0.00,,,-99.99,,2013-02-25 23:11:00,
2013-02-25 16:21:00,35.0,11.0,-100.00,West,260,3.0,5.0,36,0.00,,,-99.99,,2013-02-25 23:21:00,
2013-02-25 16:31:00,34.0,11.0,-100.00,WSW,240,2.0,6.0,36,0.00,,,-99.99,,2013-02-25 23:31:00,
2013-02-25 16:41:00,34.0,10.0,-100.00,WSW,245,3.0,6.0,37,0.00,,,-99.99,,2013-02-25 23:41:00,
2013-02-25 16:51:00,33.0,10.0,-100.00,WSW,240,1.0,4.0,37,0.00,,,-99.99,,2013-02-25 23:51:00,
2013-02-25 17:01:00,33.0,10.0,-100.00,SW,230,0.0,2.0,37,0.00,,,-99.99,,2013-02-26 00:01:00,
2013-02-25 17:11:00,32.0,10.0,-100.00,WSW,245,1.0,2.0,38,0.00,,,-99.99,,2013-02-26 00:11:00,
2013-02-25 17:21:00,31.0,9.0,-100.00,SSW,210,1.0,2.0,38,0.00,,,-99.99,,2013-02-26 00:21:00,
2013-02-25 17:32:00,30.0,8.0,-100.00,South,190,0.0,3.0,39,0.00,,,-99.99,,2013-02-26 00:32:00,
2013-02-25 17:41:00,29.0,8.0,-100.00,SW,220,0.0,3.0,40,0.00,,,-99.99,,2013-02-26 00:41:00,
2013-02-25 17:51:00,28.0,7.0,-100.00,SSW,210,0.0,1.0,40,0.00,,,-99.99,,2013-02-26 00:51:00,
2013-02-25 18:01:00,28.0,7.0,-100.00,South,190,0.0,0.0,41,0.00,,,-99.99,,2013-02-26 01:01:00,
2013-02-25 18:11:00,28.0,7.0,-100.00,SSE,165,0.0,0.0,41,0.00,,,-99.99,,2013-02-26 01:11:00,
2013-02-25 18:21:00,27.0,7.0,-100.00,SE,140,1.0,4.0,41,0.00,,,-99.99,,2013-02-26 01:21:00,
2013-02-25 18:31:00,27.0,7.0,-100.00,West,275,0.0,2.0,42,0.00,,,-99.99,,2013-02-26 01:31:00,
2013-02-25 18:41:00,26.0,6.0,-100.00,SSW,210,0.0,0.0,43,0.00,,,-99.99,,2013-02-26 01:41:00,
2013-02-25 18:51:00,24.0,6.0,-100.00,South,185,0.0,2.0,44,0.00,,,-99.99,,2013-02-26 01:51:00,
2013-02-25 19:01:00,24.0,6.0,-100.00,SE,145,1.0,3.0,45,0.00,,,-99.99,,2013-02-26 02:01:00,
2013-02-25 19:11:00,22.0,5.0,-100.00,SSE,160,2.0,3.0,46,0.00,,,-99.99,,2013-02-26 02:11:00,
2013-02-25 19:21:00,22.0,6.0,-100.00,SSE,160,2.0,6.0,48,0.00,,,-99.99,,2013-02-26 02:21:00,
2013-02-25 19:31:00,23.0,7.0,-100.00,SE,135,6.0,9.0,49,0.00,,,-99.99,,2013-02-26 02:31:00,
2013-02-25 19:41:00,23.0,7.0,-100.00,SE,140,10.0,12.0,50,0.00,,,-99.99,,2013-02-26 02:41:00,
2013-02-25 19:52:00,24.0,8.0,-100.00,ESE,110,7.0,12.0,50,0.00,,,-99.99,,2013-02-26 02:52:00,
2013-02-25 20:01:00,24.0,8.0,-100.00,SE,125,9.0,13.0,50,0.00,,,-99.99,,2013-02-26 03:01:00,
2013-02-25 20:11:00,23.0,8.0,-100.00,SE,130,9.0,12.0,51,0.00,,,-99.99,,2013-02-26 03:11:00,
2013-02-25 20:21:00,22.0,7.0,-100.00,SE,135,11.0,16.0,51,0.00,,,-99.99,,2013-02-26 03:21:00,
2013-02-25 20:31:00,22.0,7.0,-100.00,SSE,150,2.0,11.0,52,0.00,,,-99.99,,2013-02-26 03:31:00,
2013-02-25 20:41:00,22.0,8.0,-100.00,SE,135,4.0,8.0,53,0.00,,,-99.99,,2013-02-26 03:41:00,
2013-02-25 20:51:00,23.0,9.0,-100.00,SE,125,5.0,11.0,54,0.00,,,-99.99,,2013-02-26 03:51:00,
2013-02-25 21:01:00,22.0,9.0,-100.00,SE,125,6.0,9.0,54,0.00,,,-99.99,,2013-02-26 04:01:00,
2013-02-25 21:11:00,23.0,9.0,-100.00,ESE,110,9.0,11.0,54,0.00,,,-99.99,,2013-02-26 04:11:00,
2013-02-25 21:21:00,23.0,9.0,-100.00,SE,130,9.0,13.0,54,0.00,,,-99.99,,2013-02-26 04:21:00,
2013-02-25 21:31:00,23.0,9.0,-100.00,SE,125,7.0,12.0,54,0.00,,,-99.99,,2013-02-26 04:31:00,
2013-02-25 21:42:00,23.0,9.0,-100.00,SE,125,10.0,13.0,54,0.00,,,-99.99,,2013-02-26 04:42:00,
2013-02-25 21:51:00,23.0,9.0,-100.00,SE,140,11.0,16.0,54,0.00,,,-99.99,,2013-02-26 04:51:00,
2013-02-25 22:01:00,22.0,8.0,-100.00,ESE,120,11.0,15.0,54,0.00,,,-99.99,,2013-02-26 05:01:00,
2013-02-25 22:11:00,22.0,8.0,-100.00,SE,125,7.0,14.0,54,0.00,,,-99.99,,2013-02-26 05:11:00,
2013-02-25 22:21:00,22.0,8.0,-100.00,SSE,160,2.0,9.0,54,0.00,,,-99.99,,2013-02-26 05:21:00,
2013-02-25 22:31:00,21.0,7.0,-100.00,NNE,20,2.0,6.0,54,0.00,,,-99.99,,2013-02-26 05:31:00,
2013-02-25 22:42:00,20.0,7.0,-100.00,SE,130,4.0,6.0,55,0.00,,,-99.99,,2013-02-26 05:42:00,
2013-02-25 22:52:00,20.0,7.0,-100.00,SE,125,4.0,6.0,56,0.00,,,-99.99,,2013-02-26 05:52:00,
2013-02-25 23:01:00,20.0,7.0,-100.00,SSE,165,2.0,6.0,56,0.00,,,-99.99,,2013-02-26 06:01:00,
2013-02-25 23:11:00,19.0,7.0,-100.00,ESE,115,1.0,7.0,56,0.00,,,-99.99,,2013-02-26 06:11:00,
2013-02-25 23:21:00,19.0,6.0,-100.00,SE,135,6.0,9.0,57,0.00,,,-99.99,,2013-02-26 06:21:00,
2013-02-25 23:31:00,19.0,7.0,-100.00,SE,130,4.0,9.0,57,0.00,,,-99.99,,2013-02-26 06:31:00,
2013-02-25 23:41:00,19.0,6.0,-100.00,South,190,0.0,3.0,58,0.00,,,-99.99,,2013-02-26 06:41:00,
2013-02-25 23:51:00,18.0,6.0,-100.00,SE,135,4.0,7.0,58,0.00,,,-99.99,,2013-02-26 06:51:00,